Location: Solon
(41.3849°N, 81.4081°W)
Time: 07:24:26
(UTC-04:00)

CZ-2C R/B - Visible Passes

Search period start: 29 May 2017 00:00
Search period end: 08 June 2017 00:00
Orbit: 705 x 907 km, 98.2° (Epoch: 28 May)

Date Brightness Start Highest point End Pass type
(mag) Time Alt. Az. Time Alt. Az. Time Alt. Az.
29 May 3.3 01:14:05 62° WSW 01:14:15 63° W 01:19:54 10° NNW visible
29 May 5.4 23:08:22 10° E 23:10:37 12° ENE 23:12:54 10° NNE visible
30 May 3.1 00:48:57 73° SE 00:49:28 81° ENE 00:55:12 10° N visible
30 May 5.3 02:30:01 13° W 02:30:01 13° W 02:32:38 10° WNW visible
31 May 3.7 00:23:49 45° ESE 00:24:47 50° ENE 00:30:19 10° N visible
31 May 4.7 02:04:53 23° W 02:04:54 23° W 02:09:18 10° NW visible
31 May 4.4 23:58:42 28° E 00:00:13 32° ENE 00:05:13 10° N visible
01 Jun 4.0 01:39:45 37° W 01:39:54 37° W 01:45:11 10° NNW visible
01 Jun 5.0 23:33:34 17° E 23:35:45 21° ENE 23:39:51 10° NNE visible
02 Jun 3.3 01:14:38 59° WSW 01:15:01 61° W 01:20:44 10° NNW visible
02 Jun 5.4 23:08:50 10° E 23:11:21 13° ENE 23:13:55 10° NNE visible
03 Jun 3.1 00:49:31 69° SSE 00:50:14 84° ENE 00:56:03 10° NNW visible
03 Jun 5.3 02:30:35 13° W 02:30:48 13° W 02:33:25 10° WNW visible
04 Jun 3.7 00:24:24 45° ESE 00:25:34 52° ENE 00:31:10 10° N visible
04 Jun 4.7 02:05:28 22° W 02:05:41 22° W 02:10:06 10° NW visible
04 Jun 4.4 23:59:17 28° E 00:00:59 33° ENE 00:06:05 10° N visible
05 Jun 4.1 01:40:21 36° WSW 01:40:42 36° W 01:46:00 10° NNW visible
05 Jun 5.0 23:34:10 17° E 23:36:29 22° ENE 23:40:45 10° NNE visible
06 Jun 3.4 01:15:14 57° SW 01:15:48 59° W 01:21:33 10° NNW visible
06 Jun 5.4 23:09:20 10° E 23:12:06 14° ENE 23:14:53 10° NNE visible
07 Jun 3.2 00:50:08 66° SSE 00:51:01 86° ENE 00:56:52 10° NNW visible
07 Jun 5.3 02:31:11 13° W 02:31:35 13° W 02:34:08 10° WNW visible
